This is the latest recevied weather packets stored in our database for station/object AD8BV. If no packets are shown the sender has not sent any weather packets the latest 10 day(s).
| Time | Temp. | Humidity | Pressure | Rain* | Wind** | Luminosity | Snow |
|---|---|---|---|---|---|---|---|
| 1777210888 | 11.67° C | 76% | 1022.3 hPa | 0 mm | - | 123 W/m² | - |
| 1777210587 | 11.11° C | 76% | 1022.4 hPa | 0 mm | - | 125 W/m² | - |
| 1777210285 | 10.56° C | 79% | 1022.4 hPa | 0 mm | - | 207 W/m² | - |
| 1777209982 | 11.11° C | 78% | 1022.4 hPa | 0 mm | - | 140 W/m² | - |
| 1777209681 | 11.11° C | 79% | 1022.2 hPa | 0 mm | - | 113 W/m² | - |
| 1777209378 | 10.56° C | 80% | 1022.4 hPa | 0 mm | - | 164 W/m² | - |
| 1777209074 | 11.11° C | 79% | 1022.3 hPa | 0 mm | - | 101 W/m² | - |
| 1777208770 | 11.11° C | 80% | 1022.3 hPa | 0 mm | - | 188 W/m² | - |
| 1777208467 | 10.56° C | 80% | 1022.2 hPa | 0 mm | - | 112 W/m² | - |
| 1777208164 | 10.56° C | 82% | 1022.1 hPa | 0 mm | - | 193 W/m² | - |
| 1777207864 | 10.56° C | 81% | 1022.2 hPa | 0 mm | - | 166 W/m² | - |
| 1777207559 | 10° C | 83% | 1021.8 hPa | 0 mm | - | 92 W/m² | - |
| 1777207255 | 10° C | 84% | 1022.1 hPa | 0 mm | - | 134 W/m² | - |
| 1777206949 | 10° C | 85% | 1022.1 hPa | 0 mm | - | 97 W/m² | - |
| 1777206644 | 9.44° C | 85% | 1021.9 hPa | 0 mm | - | 107 W/m² | - |
| 1777206340 | 9.44° C | 86% | 1022 hPa | 0 mm | - | 53 W/m² | - |
| 1777206036 | 10° C | 85% | 1021.9 hPa | 0 mm | - | 46 W/m² | - |
| 1777205732 | 10° C | 85% | 1022.1 hPa | 0 mm | - | 108 W/m² | - |
| 1777205429 | 10° C | 84% | 1021.7 hPa | 0 mm | - | 101 W/m² | - |
| 1777205124 | 10° C | 85% | 1021.8 hPa | 0 mm | - | 96 W/m² | - |
| 1777204821 | 9.44° C | 87% | 1021.6 hPa | 0 mm | - | 67 W/m² | - |
| 1777204515 | 8.89° C | 88% | 1021.8 hPa | 0 mm | - | 68 W/m² | - |
* Rain latest hour (hover to see other rain measurements)
** Current wind speed in m/s (hover to see current wind gust speed)